{"data":{"norad_id":68555,"intl_designator":"2026-070P","name":"STARLINK-37146","alt_names":[],"object_type":"PAYLOAD","status":"ACTIVE","operator":null,"country":"US","launch_date":"2026-04-02","launch_site_code":"AFETR","launch_vehicle":null,"mission":null,"orbit_class":"UNKNOWN","rcs_meters":null,"size_class":null,"mass_kg":null,"dimensions":null,"purposes":["comms"],"wikipedia_slug":null,"has_3d_model":false,"image_url":null,"decayed_at":null,"tle_current":{"epoch":"2026-05-24T23:48:20.121120Z","epoch_age_seconds":86448,"freshness":"FRESH","line1":"1 68555U 26070P   26144.99189955  .00040009  00000+0  11897-2 0  9996","line2":"2 68555  53.1602   7.6835 0000522 112.2886 247.8172 15.34379922  8244","mean_motion":15.34379922,"eccentricity":5.22e-5,"inclination_deg":53.1602,"raan_deg":7.6835,"arg_perigee_deg":112.2886,"mean_anomaly_deg":247.8172,"bstar":0.0011897,"rev_number":824,"period_min":93.848986118315,"perigee_km":462.40582192943,"apogee_km":463.12001188075,"semimajor_km":6840.8999169051,"source":"CELESTRAK","updated_at":"2026-05-25T13:38:21.962303Z"}}}